Location: Julian California
(33.0790°N, 116.6010°W)
Time: 08:22:01
(UTC-07:00)

USA 267 - Pass Details

Date: 19 May 2017
Orbit: 1101 x 1107 km, 123.0° (Epoch: 21 May)

Event Time Altitude Azimuth Distance (km) Brightness Sun altitude
Rises 23:21:39 0° 35° (NE) 3,917 6.5 -33.5°
Reaches altitude 10° 23:24:17 10° 28° (NNE) 2,957 5.9 -33.7°
Maximum altitude 23:30:16 40° 322° (NW) 1,559 4.3 -34.1°
Drops below altitude 10° 23:36:14 10° 255° (WSW) 2,950 5.5 -34.5°
Sets 23:38:52 0° 248° (WSW) 3,907 6.1 -34.7°
